User: anonymous   Login
Location: Unspecified
(0.0000°N, 0.0000°E)
Time: 18:42:03
(UTC+00:00)
Language:

Nova 3 - Orbit

View from above orbital plane
View from above orbital plane
View from above satellite
View from above satellite

Ground track
Ground track

The orbit data is extracted from the following two-line orbital elements,

1 15362U 84110A   19077.46880001 +.00000073 +00000-0 +15435-3 0  9993
2 15362 090.0593 058.0631 0029956 273.0320 251.3208 13.22765881661586
Epoch (UTC): 18 March 2019 11:15:04
Eccentricity: 0.0029956
inclination: 90.0593°
perigee height: 1151 km
apogee height: 1197 km
right ascension of ascending node: 58.0631°
argument of perigee: 273.0320°
revolutions per day: 13.22765881
mean anomaly at epoch: 251.3208°
orbit number at epoch: 66158

The dashed part of the orbit path shows where the satellite is in the earth's shadow,  

DLR